Regional Weather Roundup
Issued by NWS Charleston, SC

Current Version | Previous Version | Text Only | Print | Product List | Glossary Off
Versions: 1 2 3 4 5 6 7 8 9 10 11 12 13 14 15 16 17 18 19 20 21 22 23 24 25 26 27 28 29 30 31 32 33 34 35 36 37 38 39 40 41 42 43 44 45 46 47 48 49 50

000
ASUS42 KCHS 271426
RWRCHS

REGIONAL WEATHER ROUNDUP
NATIONAL WEATHER SERVICE CHARLESTON SC
1000 AM EDT MON APR 27 2015

NOTE: "FAIR" INDICATES FEW OR NO CLOUDS BELOW 12,000 FEET WITH NO
SIGNIFICANT WEATHER AND/OR OBSTRUCTIONS TO VISIBILITY.

NOT ALL STATIONS ARE QUALITY CONTROLLED BY THE NATIONAL
WEATHER SERVICE. USE DATA WITH CAUTION...ESPECIALLY
DEWPOINT OBSERVATIONS.

SCZ027-030-031-034>040-042>050-271500-
...SOUTHEAST SOUTH CAROLINA...

CITY           SKY/WX    TMP DP  RH WIND       PRES   REMARKS
N CHARLESTON   MOSUNNY   60  49  66 N8        29.85R
WATERFRONT PRK   N/A     57 N/A N/A W9          N/A
MOUNT PLEASANT FAIR      61  50  67 MISG      29.85R
PINOPOLIS      NOT AVBL
MONCKS CORNER  PTSUNNY   61  48  63 N9        29.85S
SUMMERVILLE    FAIR      61  52  72 N6        29.87R
BEAUFORT MCAS  PTSUNNY   62  51  67 N6        29.84R
BEAUFORT ARPT  FAIR      61  52  72 CALM      29.85R
HILTON HEAD IS MOSUNNY   61  54  77 N6        29.86R
WALTERBORO     CLOUDY    59  50  72 N7        29.87S
ALLENDALE      FAIR      61  50  67 N7        29.87R

...SOUTHERN MIDLANDS AND PEE DEE...

CITY           SKY/WX    TMP DP  RH WIND       PRES   REMARKS
GEORGETOWN     NOT AVBL
KINGSTREE      NOT AVBL
ORANGEBURG     CLOUDY    60  45  57 VRB6      29.87R
BARNWELL       CLOUDY    63  48  59 N7        29.89R
AIKEN          CLOUDY    59  45  58 CALM      29.92R
MANNING        FAIR      59  36  41 N7        29.87S
COLUMBIA       PTSUNNY   62  46  55 NE6       29.86S
SUMTER         MOSUNNY   58  46  63 VRB5      29.85R
FLORENCE       SUNNY     60  45  57 N7        29.86R
MYRTLE BEACH   SUNNY     59  46  63 N8        29.86R
N MYRTLE BEACH SUNNY     59  45  59 N9        29.84R

$$

GAZ063-065-086>088-099>101-113>116-118-119-134>141-150-271500-
...SOUTHEAST GEORGIA...

CITY           SKY/WX    TMP DP  RH WIND       PRES   REMARKS
SAVANNAH ARPT  CLOUDY    60  53  77 N6        29.85R
HUNTER AAF     CLOUDY    60  55  85 N3        29.83R
FORT STEWART   CLOUDY    60  56  86 N6        29.84R
STATESBORO       N/A     62  51  67 NE7       29.87R
SYLVANIA       MOSUNNY   62  52  71 NE7       29.87R
CLAXTON        FAIR      63  54  72 CALM      29.87R

...CSRA...CENTRAL AND FAR SOUTHEAST GEORGIA...

CITY           SKY/WX    TMP DP  RH WIND       PRES   REMARKS
THOMSON        MOSUNNY   63  53  69 CALM      29.94R
AUGUSTA-BUSH   CLOUDY    61  50  67 N6        29.89R
AUGUSTA-DANIEL CLOUDY    60  48  64 N6        29.90R
SWAINSBORO     NOT AVBL
VIDALIA        PTSUNNY   63  55  77 N3        29.87R
EASTMAN        FAIR      65  54  68 NE5       29.89S
HAZLEHURST     CLOUDY    62  58  87 N6        29.86R
ALMA           CLOUDY    63  58  83 NW7       29.84S
WAYCROSS       CLOUDY    68  64  89 E3        29.84R
JESUP          CLOUDY    64  63  94 NE5       29.85R FOG
BAXLEY         CLOUDY    63  59  88 N6        29.85R
BRUNSWICK      CLOUDY    70  63  78 NE6       29.83F
SAINT SIMONS   CLOUDY    68  62  81 NE9       29.83R

$$

SCZ027-028-034-036>038-045-046-048>050-GAZ119-141-271500-
...LAKE AND SUPPLEMENTAL COASTAL OBSERVATIONS...

STATION/POSITION TIME  TEMP    WIND        PRES    WAVE   SWELL
                       AIR SEA DIR/SP/G            HT/PER HT/PER/DIR
                 (UTC) (F)     (DEG/KT/KT) (MB)    (FT/S) (FT/S/D)
UPR LAKE MARION  NOT AVBL
WINYAH BAY       1345   57     350/  6     1009.0R
LAKE MURRAY      1300   57     280/  2/  4 1010.8R
ACE BASIN NERRS  NOT AVBL
FORT PULASKI     1400   59 70  330/  4/  5 1011.2R
SAPELO ISLAND    1400   65      20/  8     1010.0R

$$

ANZ835-935-AMZ111-154-330-350-352-354-370-450-454-472-271500-
...C-MAN AND BUOY OBSERVATIONS...

STATION/POSITION TIME  TEMP    WIND        PRES    WAVE   SWELL
                       AIR SEA DIR/SP/G            HT/PER HT/PER/DIR
                 (UTC) (F)     (DEG/KT/KT) (MB)    (FT/S) (FT/S/D)
BUOY 41004       1350   61 71  360/ 10/ 14 1009.2R   4/ 6   3/ 6
BUOY 41008       1350   64 70   30/ 12/ 14 1010.3R   4/ 6   3/ 70/ 6
FOLLY BEACH CMAN 1400   58     350/  8/ 11 1010.5R
CAPERS NEARSHORE 1308   56      10/  8/ 12 1010.1R
FRIPP NEARSHORE  1300   58     350/ 10/ 14 1009.9R


STATION/POSITION TIME  TEMP    WIND        PRES    WAVE   SWELL
                       AIR SEA DIR/SP/G            HT/PER HT/PER/DIR
                 (UTC) (F)     (DEG/KT/KT) (MB)    (FT/S) (FT/S/D)
5E ST. MARYS GA  1321      70                N/A     2/ 4
FRYING PAN BUOY  1350   60 70  360/ 12/ 16 1009.3R   3/ 5   2/ 70/ 8
BUOY 41025       1350   58 74  350/ 19/ 21 1007.3R   6/ 9   5/ 80/ 9
CAPE LOOKOUT NC  1400   59     350/ 12/ 14 1008.4R
BUOY 41002       1350   67 71  310/  6/  8 1006.3R   6/ 7   5/290/ 7
BUOY 41010       1320   79 79  270/ 16/ 19 1007.3S
ST AUGUSTINE FL  1400   76 68  310/ 10/ 16 1010.4R


$$



USA.gov is the U.S. government's official web portal to all federal, state and local government web resources and services.